Doha, Qatar

10:44 AM +03 on August 22, 2017 (GMT +0300)
Doha International

Weather History for OTBD - October, 2014

Change the Weather History Date:

Thursday, October 9, 2014

  Actual Average Record
Temperature  
Mean Temperature 89 °F -  
Max Temperature 94 °F 92 °F 108 °F (2015)
Min Temperature 84 °F 72 °F 77 °F (2016)
Cooling Degree Days 24    
Growing Degree Days 39 (Base 50)    
Moisture  
Dew Point 71 °F    
Average Humidity 51    
Maximum Humidity 66    
Minimum Humidity 30    
Precipitation  
Precipitation 0.00 in 0.00 in - ()
Sea Level Pressure  
Sea Level Pressure 29.86 in    
Wind  
Wind Speed 7 mph ()    
Max Wind Speed 10 mph    
Max Gust Speed -    
Visibility 7.0 miles    
Events      
Averages and records for this station are not official NWS values.
T = Trace of Precipitation, MM = Missing Value Source: Averaged Metar Reports

Daily Weather History Graph

Daily Weather History Graph

Search for Another Location

Airport or City:

Trip Planner

Search our weather history database for the weather conditions in past years. The results will help you decide how hot, cold, wet, or windy it might be!

Date:

Astronomy

Oct. 09, 2014 Rise Set
Actual Time 5:29 AM +03 5:12 PM +03
Civil Twilight 5:06 AM +03 5:35 PM +03
Nautical Twilight 4:39 AM +03 6:02 PM +03
Astronomical Twilight 4:13 AM +03 6:28 PM +03
Moon 6:00 PM +03 (10/9) 6:11 AM +03 (10/9)
Length of Visible Light 12h 29m
Length of Day
11h 43m
Full, 99% of the Moon is Illuminated
Oct 9
Full
Oct 15
Last Quarter
Oct 24
New
Oct 31
First Quarter
Nov 7
Full

Hourly Weather History & Observations

Time (+03) Temp. Heat Index Dew Point Humidity Pressure Visibility Wind Dir Wind Speed Gust Speed Precip Events Conditions
12:00 AM 88 °F - 61 °F 30% 29.82 in 4 mi NW 6.9 mph - -   Widespread Dust
3:00 AM 86 °F - 64 °F 38% 29.83 in 6 mi NW 9.2 mph - -  
6:00 AM 86 °F - 68 °F 46% 29.86 in 7 mi NW 4.6 mph - -  
9:00 AM 92 °F - 72 °F 43% 29.91 in 7 mi North 10.4 mph - -  
11:00 AM 93.2 °F 102.4 °F 73.4 °F 52% 29.89 in - NNE 9.2 mph - N/A   Clear
12:00 PM 94 °F - 73 °F 42% 29.87 in 9 mi NE 9.2 mph - -   Scattered Clouds
12:00 PM 95.0 °F 104.5 °F 73.4 °F 49% 29.86 in 6.2 mi NE 9.2 mph - N/A   Partly Cloudy
1:00 PM 93.2 °F 102.4 °F 73.4 °F 52% 29.86 in 6.2 mi ENE 8.1 mph - N/A   Partly Cloudy
2:00 PM 93.2 °F 100.5 °F 71.6 °F 49% 29.83 in 6.2 mi NE 8.1 mph - N/A   Partly Cloudy
2:30 PM 95.0 °F 103.2 °F 71.6 °F 47% 29.83 in 6.2 mi NNE 9.2 mph - N/A   Partly Cloudy
3:00 PM 93 °F - 70 °F 37% 29.83 in 10 mi NE 9.2 mph - -  
3:00 PM 93.2 °F 98.8 °F 69.8 °F 46% 29.83 in - NE 9.2 mph - N/A   Clear
3:30 PM 93.2 °F 96.2 °F 66.2 °F 41% 29.83 in - NNE 9.2 mph - N/A   Clear
4:00 PM 91.4 °F 94.0 °F 66.2 °F 43% 29.83 in - North 10.4 mph - N/A   Clear
4:30 PM 91.4 °F 94.0 °F 66.2 °F 43% 29.83 in - NNE 9.2 mph - N/A   Clear
5:00 PM 91.4 °F 96.8 °F 69.8 °F 49% 29.83 in - NNE 8.1 mph - N/A   Clear
5:30 PM 89.6 °F 96.2 °F 71.6 °F 55% 29.83 in - NNE 10.4 mph - N/A   Clear
6:00 PM 89 °F - 70 °F 44% 29.86 in 9 mi NNE 8.1 mph - -  
6:00 PM 89.6 °F 94.7 °F 69.8 °F 52% 29.86 in - NNE 8.1 mph - N/A   Clear
7:00 PM 89.6 °F 96.2 °F 71.6 °F 55% 29.86 in - NNE 6.9 mph - N/A   Clear
7:30 PM 87.8 °F 93.8 °F 71.6 °F 58% 29.89 in - North 6.9 mph - N/A   Clear
8:00 PM 87.8 °F 95.6 °F 73.4 °F 62% 29.89 in - North 6.9 mph - N/A   Clear
8:30 PM 87.8 °F 95.6 °F 73.4 °F 62% 29.89 in - North 8.1 mph - N/A   Clear
9:00 PM 88 °F - 74 °F 54% 29.90 in 10 mi North 8.1 mph - -  
9:00 PM 87.8 °F 95.6 °F 73.4 °F 62% 29.89 in - North 8.1 mph - N/A   Clear
10:00 PM 87.8 °F 97.6 °F 75.2 °F 66% 29.89 in 6.2 mi North 8.1 mph - N/A   Partly Cloudy
10:30 PM 87.8 °F 97.6 °F 75.2 °F 66% 29.89 in 6.2 mi NNW 9.2 mph - N/A   Partly Cloudy
11:00 PM 87.8 °F 95.6 °F 73.4 °F 62% 29.89 in 6.2 mi NNW 9.2 mph - N/A   Partly Cloudy
11:30 PM 87.8 °F 95.6 °F 73.4 °F 62% 29.86 in 6.2 mi NNW 9.2 mph - N/A   Partly Cloudy